, SD

(GMT )
Rapid City

Weather History for KRAP - June, 2012

Change the Weather History Date:

Saturday, June 23, 2012

  Actual Average Record
Temperature  
Mean Temperature 77 °F 67 °F  
Max Temperature 90 °F 81 °F 102 °F (2007)
Min Temperature 63 °F 53 °F 40 °F (1989)
Degree Days  
Heating Degree Days 0 2  
Month to date heating degree days 15 88  
Since 1 June heating degree days 15 88  
Since 1 July heating degree days 6141 7142  
Cooling Degree Days 12 4  
Month to date cooling degree days 89 49  
Year to date cooling degree days 116 64  
Since 1 June cooling degree days 89 49  
Growing Degree Days 27 (Base 50)    
Moisture  
Dew Point 61 °F    
Average Humidity 60    
Maximum Humidity 79    
Minimum Humidity 41    
Precipitation  
Precipitation 0.00 in 0.07 in 0.83 in (1967)
Month to date precipitation 2.04 2.11  
Year to date precipitation 7.98 8.80  
Snow  
Snow 0.00 in 0.00 in 0.00 in ()
Month to date snowfall 0.0 0.0  
Since 1 June snowfall 0.0 0.0  
Since 1 July snowfall 24.7 41.1  
Snow Depth 0.00 in    
Sea Level Pressure  
Sea Level Pressure 29.71 in    
Wind  
Wind Speed 10 mph (SSE)    
Max Wind Speed 18 mph    
Max Gust Speed 24 mph    
Visibility 10 miles    
Events      
T = Trace of Precipitation, MM = Missing Value Source: NWS Daily Summary

Daily Weather History Graph

Daily Weather History Graph

Search for Another Location

Airport or City:

Trip Planner

Search our weather history database for the weather conditions in past years. The results will help you decide how hot, cold, wet, or windy it might be!

Date:

Astronomy

Jun. 23, 2012 Rise Set
Actual Time 5:09 AM MDT 8:39 PM MDT
Civil Twilight 4:33 AM MDT 9:15 PM MDT
Nautical Twilight 3:45 AM MDT 10:03 PM MDT
Astronomical Twilight 2:44 AM MDT 11:04 PM MDT
Moon 9:22 AM MDT (6/23) 10:58 PM MDT (6/23)
Length of Visible Light 16h 42m
Length of Day
15h 29m
Waxing Crescent, 16% of the Moon is Illuminated
Jun 23
Waxing Crescent
Jun 26
First Quarter
Jul 3
Full
Jul 10
Last Quarter
Jul 18
New

Hourly Weather History & Observations

Time (MDT) Temp. Heat Index Dew Point Humidity Pressure Visibility Wind Dir Wind Speed Gust Speed Precip Events Conditions
12:21 AM 66.2 °F - 57.2 °F 73% 29.74 in 10.0 mi SW 16.1 mph 24.2 mph 0.00 in   Clear
12:52 AM 64.4 °F - 55.4 °F 73% 29.74 in 10.0 mi ENE 3.5 mph - N/A   Partly Cloudy
1:52 AM 63.0 °F - 55.9 °F 78% 29.67 in 10.0 mi SW 5.8 mph - N/A   Clear
2:52 AM 64.0 °F - 54.0 °F 70% 29.64 in 10.0 mi SSW 12.7 mph - N/A   Clear
3:52 AM 64.9 °F - 54.0 °F 68% 29.63 in 10.0 mi SSW 16.1 mph - N/A   Clear
4:52 AM 66.0 °F - 54.0 °F 65% 29.65 in 10.0 mi SSW 16.1 mph - N/A   Clear
5:52 AM 64.9 °F - 55.0 °F 70% 29.67 in 10.0 mi SSW 11.5 mph - N/A   Clear
6:52 AM 69.8 °F - 57.2 °F 64% 29.77 in 10.0 mi South 6.9 mph - N/A   Clear
7:52 AM 72.0 °F - 57.0 °F 59% 29.69 in 10.0 mi South 15.0 mph - N/A   Clear
8:52 AM 73.9 °F - 59.0 °F 59% 29.69 in 10.0 mi South 12.7 mph 21.9 mph N/A   Clear
9:52 AM 78.8 °F - 62.6 °F 57% 29.79 in 10.0 mi South 15.0 mph 19.6 mph N/A   Clear
10:52 AM 79.0 °F - 62.1 °F 56% 29.70 in 10.0 mi South 10.4 mph - N/A   Clear
11:52 AM 82.4 °F 83.4 °F 62.6 °F 51% 29.78 in 10.0 mi South 8.1 mph - N/A   Clear
12:52 PM 84.0 °F 84.9 °F 63.0 °F 49% 29.70 in 10.0 mi SSE 8.1 mph - N/A   Clear
1:52 PM 87.1 °F 88.9 °F 64.9 °F 48% 29.69 in 10.0 mi SE 9.2 mph 20.7 mph N/A   Clear
2:52 PM 84.0 °F 84.9 °F 63.0 °F 49% 29.70 in 10.0 mi SSE 6.9 mph 17.3 mph N/A   Clear
3:52 PM 84.0 °F 85.4 °F 64.0 °F 51% 29.69 in 10.0 mi ESE 5.8 mph - N/A   Clear
4:52 PM 89.1 °F 89.3 °F 62.1 °F 40% 29.68 in 10.0 mi ESE 10.4 mph 17.3 mph N/A   Clear
5:52 PM 88.0 °F 88.7 °F 63.0 °F 43% 29.68 in 10.0 mi East 15.0 mph 20.7 mph N/A   Clear
6:52 PM 86.0 °F 87.3 °F 64.0 °F 48% 29.70 in 10.0 mi East 13.8 mph - N/A   Clear
7:52 PM 82.0 °F 83.4 °F 64.0 °F 54% 29.73 in 10.0 mi East 11.5 mph - N/A   Clear
8:52 PM 77.0 °F - 64.0 °F 64% 29.75 in 10.0 mi East 9.2 mph - N/A   Clear
9:52 PM 75.9 °F - 64.0 °F 67% 29.78 in 10.0 mi East 10.4 mph - N/A   Clear
10:52 PM 75.0 °F - 64.0 °F 69% 29.80 in 10.0 mi ESE 9.2 mph - N/A   Clear
11:52 PM 72.0 °F - 64.9 °F 78% 29.81 in 10.0 mi ESE 4.6 mph - N/A   Clear